Location: Maiden
(35.5760°N, 81.2120°W)
Time: 03:42:14
(UTC-04:00)

Vanguard 2 - Pass Details

Date: 10 August 2020
Orbit: 553 x 2937 km, 32.9° (Epoch: 20 September)

Event Time Altitude Azimuth Distance (km) Brightness Sun altitude
Rises 23:56:37 0° 264° (W) 6,600 12.5 -34.4°
Reaches altitude 10° 00:01:21 10° 263° (W) 5,379 12.0 -34.8°
Maximum altitude 00:16:28 79° 180° (S) 1,935 9.2 -36.1°
Enters shadow 00:17:08 77° 146° (SSE) 1,908 9.1 -36.1°
Drops below altitude 10° 00:25:31 10° 96° (E) 3,388 - -36.7°
Sets 00:27:51 0° 95° (E) 4,108 - -36.9°
